RYR27J EPMO-LGKR

Flight info

Callsign RYR27J
Flight time N/A
Altitude 38000
Route EVINA DCT KUKAM DCT MEBAN/N0465F370 DCT DODAR DCT EBORO DCT PARAK/N0459F380 DCT POD DCT RODON/N0454F390 DCT LIMJA N732 PITAS
Aircraft B738/M-SDE2E3FGHIRWXY/LB1

Departure

Time 2026-04-21 07:43
Airport Warsaw Modlin Airport (EPMO)

Arrival

Time N/A
Airport Corfu Ioannis Kapodistrias International Airport (LGKR)
Time Latitude Longitude Altitude Speed Heading
2026-04-21 07:43 52.45137 20.65325 351 ft 146 kts 81°
2026-04-21 07:43 52.45301 20.67160 681 ft 169 kts 77°
2026-04-21 07:43 52.45487 20.69041 1544 ft 166 kts 78°
2026-04-21 07:43 52.45665 20.70885 2389 ft 167 kts 78°
2026-04-21 07:44 52.45878 20.72904 2825 ft 192 kts 76°
2026-04-21 07:44 52.46146 20.75205 3089 ft 217 kts 77°
2026-04-21 07:44 52.46592 20.77606 3642 ft 224 kts 55°
2026-04-21 07:44 52.47693 20.79375 4336 ft 224 kts 32°
2026-04-21 07:45 52.49127 20.80366 5071 ft 227 kts 13°
2026-04-21 07:45 52.50715 20.80445 5739 ft 232 kts 355°
2026-04-21 07:45 52.52328 20.80064 6425 ft 236 kts 353°
2026-04-21 07:45 52.53952 20.79631 7089 ft 238 kts 353°
2026-04-21 07:46 52.55597 20.79159 7696 ft 243 kts 347°
2026-04-21 07:46 52.57076 20.77765 8319 ft 253 kts 317°
2026-04-21 07:46 52.57980 20.75251 8913 ft 263 kts 288°
2026-04-21 07:46 52.58053 20.72230 9531 ft 272 kts 259°
2026-04-21 07:47 52.57248 20.69409 10125 ft 277 kts 230°
2026-04-21 07:47 52.55740 20.67467 10659 ft 278 kts 202°
2026-04-21 07:47 52.53899 20.66511 11220 ft 279 kts 191°
2026-04-21 07:47 52.51990 20.65815 11767 ft 284 kts 189°
2026-04-21 07:48 52.49993 20.65147 12043 ft 306 kts 188°
2026-04-21 07:48 52.47828 20.64434 12254 ft 329 kts 189°
2026-04-21 07:48 52.45528 20.63669 12450 ft 352 kts 189°
2026-04-21 07:48 52.43060 20.62834 12646 ft 374 kts 189°
2026-04-21 07:49 52.28149 20.57665 16012 ft 408 kts 189°
2026-04-21 07:49 52.05541 20.49744 21377 ft 423 kts 189°
2026-04-21 07:49 51.82003 20.41539 25347 ft 444 kts 188°
2026-04-21 07:49 51.57058 20.33199 28068 ft 471 kts 188°
2026-04-21 07:50 51.30989 20.24574 30751 ft 481 kts 190°